SCP
0 0 -0 0 0 0 0 0 1 1 1 1 1 1 1 0 0 0 0 0 0 0 0 0 0 1 1 1 1 1 1 1 1 1 1 0 0 0 0 0 0 0 0
0 -0 -0 0 0 0 0 0 0 1 1 1 1 1 1 1 1 0 0 0 0 0 0 1 1 1 1 1 1 1 2 1 2 2 1 0 0 0 0 0 0 0 0
0 0 0 0 0 0 0 0 0 1 2 1 1 1 1 1 1 1 1 1 1 1 1 1 1 1 1 1 1 1 2 3 2 1 0 0 0 0 0 0 0 0 0
0 0 0 0 -0 0 0 0 0 0 1 1 1 1 1 2 2 2 2 2 1 1 1 1 1 2 2 2 2 2 2 2 2 0 0 0 0 0 0 0 0 0 0
0 0 0 0 0 -0 0 0 0 0 1 1 1 2 2 2 2 3 3 2 2 2 1 1 1 2 3 2 2 2 2 1 1 0 0 0 0 0 0 0 0 0 0
0 0 0 0 0 0 0 0 0 1 1 1 1 2 2 2 3 3 3 4 3 2 1 2 2 2 2 2 2 2 1 1 0 0 0 0 0 0 0 0 0 0 0
0 0 0 0 0 0 0 0 0 1 1 1 2 2 2 2 2 2 3 3 3 3 2 1 1 1 2 2 2 2 1 0 0 0 0 0 0 0 0 0 0 0 0
0 0 0 0 0 0 0 0 0 0 1 1 1 2 2 2 2 2 3 3 3 3 2 2 2 2 2 2 2 1 0 0 0 0 0 0 0 0 0 0 0 0 0
0 0 0 0 0 0 0 0 0 0 0 1 1 1 2 2 2 2 2 3 2 2 1 1 1 1 1 1 2 0 0 0 0 0 0 0 0 0 0 0 0 0 0
0 0 0 0 0 0 0 0 0 0 1 1 1 1 1 1 1 2 1 1 1 1 1 1 1 1 1 1 0 0 0 0 0 0 0 0 0 0 0 0 0 0 0
0 0 0 0 0 0 0 0 0 0 0 0 1 1 1 1 1 1 1 1 1 1 1 1 1 1 1 0 0 0 0 0 0 0 0 0 0 0 0 0 0 0 0
0 0 0 0 0 0 0 0 0 0 0 0 0 1 0 0 1 1 1 1 1 1 1 1 0 0 0 0 0 0 0 0 0 0 0 0 0 0 0 0 0 0 0
0 0 0 0 0 0 0 0 0 0 0 0 0 0 0 1 0 1 1 1 1 1 1 0 0 0 0 0 0 0 0 0 0 0 0 0 0 0 0 0 0 0 0
0 0 0 0 0 0 0 0 0 0 0 0 0 0 0 0 0 0 1 1 1 1 1 0 0 0 0 0 0 0 0 0 0 0 0 0 0 0 0 0 0 0 0
0 0 0 0 0 0 0 0 0 0 0 0 0 0 0 0 0 0 0 0 0 0 0 0 0 0 0 0 0 0 0 0 0 0 0 0 0 0 0 0 0 0 0
0 0 0 0 0 0 0 0 0 0 0 0 0 0 0 0 0 0 0 0 0 0 0 0 0 0 0 0 0 0 0 0 0 0 0 0 0 0 0 0 0 0 0
0 0 0 0 0 0 0 0 0 0 0 -0 0 0 0 0 0 0 0 0 0 0 0 0 0 0 0 0 0 0 0 0 0 0 0 0 0 0 0 0 0 0 0
0 0 0 0 0 0 0 0 0 -0 -0 -0 -0 -0 -0 0 0 0 0 0 0 0 0 0 0 0 0 0 0 0 0 0 0 0 0 0 0 0 0 0 0 0 0
0 0 0 0 0 0 0 0 0 0 -0 -0 -0 0 0 0 0 0 0 0 0 0 0 0 0 0 0 0 0 0 0 0 0 0 0 0 0 0 0 0 0 0 0
0 0 0 0 0 0 0 0 0 0 0 0 0 0 0 0 0 0 0 0 0 0 0 0 0 0 0 0 0 0 0 0 0 0 0 0 0 0 0 0 0 0 0
0 0 0 0 0 0 0 0 0 0 0 0 0 0 0 0 0 0 0 0 0 0 0 0 0 0 0 0 0 0 0 0 0 0 0 0 0 0 0 0 0 0 0
0 0 0 0 0 0 0 0 0 0 0 0 0 0 0 0 0 0 0 0 0 0 0 0 0 0 0 0 0 0 0 0 0 0 0 0 0 0 0 0 0 0 0
0 0 0 0 0 0 0 0 0 0 0 0 0 0 0 0 0 0 0 0 0 0 0 0 0 0 0 0 0 0 0 0 0 0 0 0 0 0 0 0 0 0 0
0 0 0 0 0 0 0 0 0 0 0 0 0 0 0 0 0 0 0 0 0 0 0 0 0 0 0 0 0 0 0 0 0 0 0 0 0 0 0 0 0 0 0
0 0 0 0 0 0 0 0 0 0 0 0 0 0 0 0 0 0 0 0 0 0 0 0 0 0 0 0 0 0 0 0 0 0 0 0 0 0 0 0 0 0 0
0 0 0 0 0 0 0 0 0 0 0 0 0 0 0 0 0 0 0 0 0 0 0 0 0 0 0 0 0 0 0 0 0 0 0 0 0 0 0 0 0 0 0
Wind_Speed_500mb
44 48 51 57 68 77 84 87 89 85 83 80 80 82 79 77 75 73 73 71 71 71 72 72 75 74 73 71 69 66 68 70 71 69 71 71 69 68 64 62 38 17 27
27 35 42 48 59 65 69 75 77 87 91 88 84 85 86 84 80 77 75 74 72 70 71 71 73 73 72 71 72 70 73 76 75 73 71 60 65 72 70 67 62 46 41
23 34 47 56 57 65 67 69 68 73 78 88 89 91 92 90 89 89 86 83 80 73 69 68 70 72 74 74 73 74 77 81 84 79 70 27 30 37 49 53 57 54 52
21 24 27 27 44 51 46 60 69 70 71 72 87 96 97 95 95 93 91 88 85 77 70 63 62 70 76 74 75 77 78 79 81 83 84 87 68 32 27 52 54 55 48
34 42 46 44 28 16 24 42 56 62 68 70 73 84 92 97 95 96 94 91 88 83 73 66 64 67 72 75 74 76 79 76 77 80 81 73 82 70 59 50 62 55 57
33 37 42 45 48 47 34 15 27 41 54 61 64 69 77 85 89 90 90 90 89 81 74 73 67 63 68 72 76 75 76 79 82 74 81 81 73 73 62 56 54 64 70
32 36 38 39 39 36 35 30 22 22 28 35 42 52 60 67 73 76 76 77 78 79 71 72 70 66 64 65 68 70 75 80 85 89 85 82 79 85 82 66 63 60 52
36 41 42 36 33 32 30 29 28 28 29 32 36 43 51 56 59 58 58 61 63 61 60 63 63 64 64 62 57 65 69 67 76 83 89 71 67 69 69 71 66 30 34
26 29 25 27 27 29 33 34 37 44 48 46 48 48 49 52 49 50 54 54 55 49 50 50 57 59 61 61 55 64 65 67 72 66 71 72 59 61 69 63 50 48 33
24 25 26 26 26 29 34 39 44 49 55 64 66 60 58 53 52 56 53 55 53 52 50 49 51 53 53 52 54 61 59 64 62 58 69 67 60 60 60 59 52 53 41
26 32 37 39 40 37 38 43 51 58 63 64 66 76 71 66 65 64 61 59 59 59 58 53 50 49 46 47 50 57 55 57 51 58 62 71 59 65 63 59 58 51 48
20 27 33 36 35 36 47 51 49 60 50 55 60 63 76 79 73 72 70 68 65 64 62 58 53 50 45 47 49 51 53 55 60 53 67 72 64 68 65 64 61 56 47
21 22 24 28 33 37 42 44 41 47 52 44 41 46 56 73 77 73 72 70 70 73 67 66 61 53 49 48 48 49 52 59 54 62 72 77 74 74 74 74 65 55 43
28 29 32 39 41 45 48 49 50 45 42 35 28 28 30 39 55 63 68 70 72 77 78 73 62 64 56 50 53 52 56 62 59 62 83 81 74 80 84 72 62 53 44
20 24 30 35 40 44 48 52 57 59 58 50 42 37 32 27 28 34 38 44 51 64 74 77 72 66 61 60 58 59 59 62 65 71 78 78 85 87 80 73 66 53 42
15 19 24 27 34 40 44 47 49 52 52 50 48 45 43 40 36 31 28 31 35 43 55 68 73 75 70 68 62 63 69 64 67 84 85 90 91 83 75 67 51 44 42
14 16 21 23 26 31 39 46 50 51 51 49 48 49 48 48 47 45 42 37 35 39 47 49 59 68 66 67 69 70 70 69 75 92 97 99 84 77 68 56 50 42 29
13 11 12 15 24 32 40 46 50 51 59 61 57 53 49 45 46 48 47 45 45 44 42 41 43 48 54 57 60 61 67 72 81 84 67 78 75 58 46 41 35 36 26
7 9 17 22 26 33 39 44 48 53 56 60 58 58 58 58 56 56 55 54 53 52 52 53 53 52 52 51 53 55 62 66 63 59 64 55 47 38 38 35 26 26 30
6 11 16 20 25 31 37 40 42 42 43 45 49 50 49 48 46 45 47 48 48 49 49 48 49 49 53 55 51 48 50 57 58 53 43 33 30 33 30 29 29 31 30
9 14 16 20 26 30 35 39 39 38 37 38 38 39 40 38 40 45 50 52 50 48 46 44 43 43 34 12 21 26 30 27 21 20 25 29 25 24 28 32 31 31 30
6 8 10 17 23 28 31 29 27 28 31 32 35 34 34 39 42 41 47 49 46 42 39 36 24 10 29 24 17 7 5 11 13 8 9 14 16 21 22 25 29 30 36
8 8 7 11 18 20 23 24 25 26 29 33 35 35 39 42 43 39 42 45 41 35 23 8 27 21 15 14 23 26 14 5 5 6 10 12 15 20 22 26 31 32 36
6 6 8 14 18 22 24 25 26 29 31 33 35 37 39 39 36 34 31 28 29 25 28 27 21 18 21 26 24 17 15 16 13 12 16 20 22 23 26 31 34 33 28
3 6 13 18 21 25 27 29 27 30 28 31 32 31 30 29 27 27 28 27 24 27 30 25 19 18 20 22 21 18 21 24 22 26 22 24 25 23 25 31 31 31 29
8 12 16 18 20 22 24 27 27 28 27 26 27 26 26 26 26 26 23 24 24 22 20 17 20 20 21 23 26 26 25 23 27 26 27 27 25 24 22 23 22 27 32
Wind_Direction_500mb
251 248 250 256 257 259 259 252 247 241 239 237 240 245 246 248 250 252 254 254 254 253 254 254 256 255 255 256 257 255 254 256 258 261 263 265 261 259 254 253 245 281 268
276 274 265 257 255 255 258 260 255 247 241 240 241 245 250 252 253 255 256 257 257 254 254 253 253 255 256 255 255 254 255 256 256 256 261 260 260 251 249 246 239 225 242
310 294 278 268 258 252 252 255 255 254 246 241 244 245 248 251 254 254 254 254 255 256 254 255 257 256 258 259 259 259 257 257 260 257 251 233 225 232 240 244 229 223 237
10 4 335 291 270 262 246 252 256 256 257 247 246 248 251 253 257 258 259 260 261 261 261 256 262 260 261 264 264 264 264 264 263 264 261 255 248 226 237 239 219 212 234
32 37 35 34 31 345 265 245 253 259 260 258 251 251 252 256 257 260 262 261 262 263 263 263 261 260 260 265 266 266 267 264 263 264 261 250 254 255 252 223 214 214 236
37 38 40 45 45 44 34 339 280 271 268 268 266 263 263 261 262 264 265 264 262 263 264 267 268 263 263 266 268 268 268 266 264 265 266 265 252 243 231 217 218 227 243
31 29 26 30 34 31 28 18 2 334 297 284 279 274 272 269 270 269 271 270 268 266 270 272 272 271 271 271 268 270 268 268 267 264 267 268 261 248 260 231 230 234 240
48 39 30 21 15 9 1 347 331 316 308 293 291 286 277 273 271 270 268 267 267 269 269 270 275 276 275 270 268 272 270 273 275 271 271 271 259 235 224 237 226 216 219
43 24 18 7 359 348 336 323 313 305 296 283 277 283 281 275 270 265 266 267 264 258 258 268 272 272 269 267 264 266 271 271 272 273 266 258 226 223 239 228 229 217 209
21 18 11 0 343 327 314 304 296 290 289 282 277 274 276 273 264 260 262 263 258 249 252 258 264 266 263 256 261 265 265 273 268 271 263 231 234 229 221 222 224 225 230
12 5 358 352 344 329 319 308 299 293 282 279 278 272 269 268 264 259 258 260 258 251 255 258 261 260 260 258 254 261 266 270 269 258 250 232 237 219 220 219 222 227 241
22 5 348 340 333 321 314 309 297 298 291 289 280 275 269 269 267 265 264 265 264 258 261 261 264 267 269 267 267 262 256 271 256 256 244 233 219 223 222 220 220 231 239
28 19 9 1 351 344 344 337 318 307 302 291 296 287 273 267 270 274 276 278 278 268 263 266 265 267 269 268 268 264 266 263 258 260 250 232 225 221 217 218 224 230 238
13 16 23 27 26 24 23 18 13 359 338 319 320 317 307 290 279 280 281 282 279 274 266 263 262 266 264 265 263 265 263 253 259 259 233 228 233 222 218 222 228 232 243
17 23 26 29 31 30 27 26 26 24 22 18 12 1 346 327 306 297 292 286 279 274 271 267 264 263 264 266 262 266 265 261 257 252 232 238 230 223 221 228 229 234 238
50 44 43 38 32 25 19 16 14 15 13 12 17 17 17 11 2 349 336 322 309 298 287 273 268 261 263 268 267 268 263 266 259 241 239 230 219 219 226 223 228 234 251
82 64 51 37 25 14 3 358 356 354 353 357 359 357 358 359 356 350 347 342 329 318 310 296 281 275 271 272 269 268 266 266 265 245 235 220 214 219 218 223 228 237 240
110 71 37 10 356 350 343 342 344 341 342 340 343 344 344 342 341 340 339 338 338 334 327 317 306 297 287 281 278 274 266 260 251 244 232 214 217 220 224 232 233 238 230
83 15 356 348 346 339 339 338 332 330 327 336 341 341 337 334 329 325 325 324 322 322 321 322 322 318 308 296 285 275 260 247 245 231 219 214 205 222 221 233 231 238 239
27 7 358 351 341 345 340 341 347 344 341 339 342 339 339 339 343 341 337 333 328 325 321 318 318 317 312 304 290 270 242 234 214 204 207 225 222 236 233 239 234 233 236
11 11 356 348 349 348 348 348 352 354 354 350 349 342 339 340 340 337 337 337 333 332 331 330 329 322 312 216 195 190 192 196 202 213 229 229 233 226 228 233 235 241 245
15 11 350 347 353 350 351 356 359 2 359 358 354 352 347 338 335 341 343 339 337 339 343 339 332 118 143 153 136 85 347 299 280 246 231 240 236 233 227 240 246 246 239
40 35 8 353 359 5 12 8 13 3 359 352 353 355 356 353 350 359 1 355 1 3 8 80 129 116 86 52 358 330 313 280 266 288 280 271 263 248 236 235 246 240 234
354 6 21 20 20 15 10 8 3 358 354 356 360 0 4 6 5 14 20 30 32 39 46 25 3 331 317 324 335 341 321 276 240 270 283 276 270 262 254 242 231 226 246
62 37 24 20 16 13 7 5 5 5 12 18 24 24 16 10 5 4 6 3 347 336 334 343 346 336 322 319 316 309 293 278 269 261 285 280 275 268 259 248 230 228 243
94 55 43 27 20 14 8 5 4 9 11 8 3 3 357 352 352 348 348 344 339 335 327 323 317 313 302 294 295 296 290 291 266 263 279 277 270 264 249 234 233 242 242
Wind_Speed_850mb
44 48 51 57 68 77 84 87 89 85 83 80 80 82 79 77 75 73 73 71 71 71 72 72 75 74 73 71 69 66 68 70 71 69 71 71 69 68 64 62 38 17 27
27 35 42 48 59 65 69 75 77 87 91 88 84 85 86 84 80 77 75 74 72 70 71 71 73 73 72 71 72 70 73 76 75 73 71 60 65 72 70 67 62 46 41
23 34 47 56 57 65 67 69 68 73 78 88 89 91 92 90 89 89 86 83 80 73 69 68 70 72 74 74 73 74 77 81 84 79 70 27 30 37 49 53 57 54 52
21 24 27 27 44 51 46 60 69 70 71 72 87 96 97 95 95 93 91 88 85 77 70 63 62 70 76 74 75 77 78 79 81 83 84 87 68 32 27 52 54 55 48
34 42 46 44 28 16 24 42 56 62 68 70 73 84 92 97 95 96 94 91 88 83 73 66 64 67 72 75 74 76 79 76 77 80 81 73 82 70 59 50 62 55 57
33 37 42 45 48 47 34 15 27 41 54 61 64 69 77 85 89 90 90 90 89 81 74 73 67 63 68 72 76 75 76 79 82 74 81 81 73 73 62 56 54 64 70
32 36 38 39 39 36 35 30 22 22 28 35 42 52 60 67 73 76 76 77 78 79 71 72 70 66 64 65 68 70 75 80 85 89 85 82 79 85 82 66 63 60 52
36 41 42 36 33 32 30 29 28 28 29 32 36 43 51 56 59 58 58 61 63 61 60 63 63 64 64 62 57 65 69 67 76 83 89 71 67 69 69 71 66 30 34
26 29 25 27 27 29 33 34 37 44 48 46 48 48 49 52 49 50 54 54 55 49 50 50 57 59 61 61 55 64 65 67 72 66 71 72 59 61 69 63 50 48 33
24 25 26 26 26 29 34 39 44 49 55 64 66 60 58 53 52 56 53 55 53 52 50 49 51 53 53 52 54 61 59 64 62 58 69 67 60 60 60 59 52 53 41
26 32 37 39 40 37 38 43 51 58 63 64 66 76 71 66 65 64 61 59 59 59 58 53 50 49 46 47 50 57 55 57 51 58 62 71 59 65 63 59 58 51 48
20 27 33 36 35 36 47 51 49 60 50 55 60 63 76 79 73 72 70 68 65 64 62 58 53 50 45 47 49 51 53 55 60 53 67 72 64 68 65 64 61 56 47
21 22 24 28 33 37 42 44 41 47 52 44 41 46 56 73 77 73 72 70 70 73 67 66 61 53 49 48 48 49 52 59 54 62 72 77 74 74 74 74 65 55 43
28 29 32 39 41 45 48 49 50 45 42 35 28 28 30 39 55 63 68 70 72 77 78 73 62 64 56 50 53 52 56 62 59 62 83 81 74 80 84 72 62 53 44
20 24 30 35 40 44 48 52 57 59 58 50 42 37 32 27 28 34 38 44 51 64 74 77 72 66 61 60 58 59 59 62 65 71 78 78 85 87 80 73 66 53 42
15 19 24 27 34 40 44 47 49 52 52 50 48 45 43 40 36 31 28 31 35 43 55 68 73 75 70 68 62 63 69 64 67 84 85 90 91 83 75 67 51 44 42
14 16 21 23 26 31 39 46 50 51 51 49 48 49 48 48 47 45 42 37 35 39 47 49 59 68 66 67 69 70 70 69 75 92 97 99 84 77 68 56 50 42 29
13 11 12 15 24 32 40 46 50 51 59 61 57 53 49 45 46 48 47 45 45 44 42 41 43 48 54 57 60 61 67 72 81 84 67 78 75 58 46 41 35 36 26
7 9 17 22 26 33 39 44 48 53 56 60 58 58 58 58 56 56 55 54 53 52 52 53 53 52 52 51 53 55 62 66 63 59 64 55 47 38 38 35 26 26 30
6 11 16 20 25 31 37 40 42 42 43 45 49 50 49 48 46 45 47 48 48 49 49 48 49 49 53 55 51 48 50 57 58 53 43 33 30 33 30 29 29 31 30
9 14 16 20 26 30 35 39 39 38 37 38 38 39 40 38 40 45 50 52 50 48 46 44 43 43 34 12 21 26 30 27 21 20 25 29 25 24 28 32 31 31 30
6 8 10 17 23 28 31 29 27 28 31 32 35 34 34 39 42 41 47 49 46 42 39 36 24 10 29 24 17 7 5 11 13 8 9 14 16 21 22 25 29 30 36
8 8 7 11 18 20 23 24 25 26 29 33 35 35 39 42 43 39 42 45 41 35 23 8 27 21 15 14 23 26 14 5 5 6 10 12 15 20 22 26 31 32 36
6 6 8 14 18 22 24 25 26 29 31 33 35 37 39 39 36 34 31 28 29 25 28 27 21 18 21 26 24 17 15 16 13 12 16 20 22 23 26 31 34 33 28
3 6 13 18 21 25 27 29 27 30 28 31 32 31 30 29 27 27 28 27 24 27 30 25 19 18 20 22 21 18 21 24 22 26 22 24 25 23 25 31 31 31 29
8 12 16 18 20 22 24 27 27 28 27 26 27 26 26 26 26 26 23 24 24 22 20 17 20 20 21 23 26 26 25 23 27 26 27 27 25 24 22 23 22 27 32
Wind_Direction_850mb
251 248 250 256 257 259 259 252 247 241 239 237 240 245 246 248 250 252 254 254 254 253 254 254 256 255 255 256 257 255 254 256 258 261 263 265 261 259 254 253 245 281 268
276 274 265 257 255 255 258 260 255 247 241 240 241 245 250 252 253 255 256 257 257 254 254 253 253 255 256 255 255 254 255 256 256 256 261 260 260 251 249 246 239 225 242
310 294 278 268 258 252 252 255 255 254 246 241 244 245 248 251 254 254 254 254 255 256 254 255 257 256 258 259 259 259 257 257 260 257 251 233 225 232 240 244 229 223 237
10 4 335 291 270 262 246 252 256 256 257 247 246 248 251 253 257 258 259 260 261 261 261 256 262 260 261 264 264 264 264 264 263 264 261 255 248 226 237 239 219 212 234
32 37 35 34 31 345 265 245 253 259 260 258 251 251 252 256 257 260 262 261 262 263 263 263 261 260 260 265 266 266 267 264 263 264 261 250 254 255 252 223 214 214 236
37 38 40 45 45 44 34 339 280 271 268 268 266 263 263 261 262 264 265 264 262 263 264 267 268 263 263 266 268 268 268 266 264 265 266 265 252 243 231 217 218 227 243
31 29 26 30 34 31 28 18 2 334 297 284 279 274 272 269 270 269 271 270 268 266 270 272 272 271 271 271 268 270 268 268 267 264 267 268 261 248 260 231 230 234 240
48 39 30 21 15 9 1 347 331 316 308 293 291 286 277 273 271 270 268 267 267 269 269 270 275 276 275 270 268 272 270 273 275 271 271 271 259 235 224 237 226 216 219
43 24 18 7 359 348 336 323 313 305 296 283 277 283 281 275 270 265 266 267 264 258 258 268 272 272 269 267 264 266 271 271 272 273 266 258 226 223 239 228 229 217 209
21 18 11 0 343 327 314 304 296 290 289 282 277 274 276 273 264 260 262 263 258 249 252 258 264 266 263 256 261 265 265 273 268 271 263 231 234 229 221 222 224 225 230
12 5 358 352 344 329 319 308 299 293 282 279 278 272 269 268 264 259 258 260 258 251 255 258 261 260 260 258 254 261 266 270 269 258 250 232 237 219 220 219 222 227 241
22 5 348 340 333 321 314 309 297 298 291 289 280 275 269 269 267 265 264 265 264 258 261 261 264 267 269 267 267 262 256 271 256 256 244 233 219 223 222 220 220 231 239
28 19 9 1 351 344 344 337 318 307 302 291 296 287 273 267 270 274 276 278 278 268 263 266 265 267 269 268 268 264 266 263 258 260 250 232 225 221 217 218 224 230 238
13 16 23 27 26 24 23 18 13 359 338 319 320 317 307 290 279 280 281 282 279 274 266 263 262 266 264 265 263 265 263 253 259 259 233 228 233 222 218 222 228 232 243
17 23 26 29 31 30 27 26 26 24 22 18 12 1 346 327 306 297 292 286 279 274 271 267 264 263 264 266 262 266 265 261 257 252 232 238 230 223 221 228 229 234 238
50 44 43 38 32 25 19 16 14 15 13 12 17 17 17 11 2 349 336 322 309 298 287 273 268 261 263 268 267 268 263 266 259 241 239 230 219 219 226 223 228 234 251
82 64 51 37 25 14 3 358 356 354 353 357 359 357 358 359 356 350 347 342 329 318 310 296 281 275 271 272 269 268 266 266 265 245 235 220 214 219 218 223 228 237 240
110 71 37 10 356 350 343 342 344 341 342 340 343 344 344 342 341 340 339 338 338 334 327 317 306 297 287 281 278 274 266 260 251 244 232 214 217 220 224 232 233 238 230
83 15 356 348 346 339 339 338 332 330 327 336 341 341 337 334 329 325 325 324 322 322 321 322 322 318 308 296 285 275 260 247 245 231 219 214 205 222 221 233 231 238 239
27 7 358 351 341 345 340 341 347 344 341 339 342 339 339 339 343 341 337 333 328 325 321 318 318 317 312 304 290 270 242 234 214 204 207 225 222 236 233 239 234 233 236
11 11 356 348 349 348 348 348 352 354 354 350 349 342 339 340 340 337 337 337 333 332 331 330 329 322 312 216 195 190 192 196 202 213 229 229 233 226 228 233 235 241 245
15 11 350 347 353 350 351 356 359 2 359 358 354 352 347 338 335 341 343 339 337 339 343 339 332 118 143 153 136 85 347 299 280 246 231 240 236 233 227 240 246 246 239
40 35 8 353 359 5 12 8 13 3 359 352 353 355 356 353 350 359 1 355 1 3 8 80 129 116 86 52 358 330 313 280 266 288 280 271 263 248 236 235 246 240 234
354 6 21 20 20 15 10 8 3 358 354 356 360 0 4 6 5 14 20 30 32 39 46 25 3 331 317 324 335 341 321 276 240 270 283 276 270 262 254 242 231 226 246
62 37 24 20 16 13 7 5 5 5 12 18 24 24 16 10 5 4 6 3 347 336 334 343 346 336 322 319 316 309 293 278 269 261 285 280 275 268 259 248 230 228 243
94 55 43 27 20 14 8 5 4 9 11 8 3 3 357 352 352 348 348 344 339 335 327 323 317 313 302 294 295 296 290 291 266 263 279 277 270 264 249 234 233 242 242